When you browse on this site, cookies collect data to enhance your experience and personalize the content and advertising you see.
Visit our Privacy Policy to learn more. By continuing to use the site, you agree to this use of cookies and data.
EN

Hourly Weather Potosi

Today, 10 July, Friday

Time Temperature Precipitation Wind Pressure Humidity
00:00 +1°C° 0 mm 1 mps 462 mmHg 21%
01:00 0°C° 0 mm 1 mps 462 mmHg 20%
02:00 0°C° 0 mm 1 mps 461 mmHg 19%
03:00 0°C° 0 mm 1 mps 461 mmHg 17%
04:00 -2°C° 0 mm 2 mps 461 mmHg 16%
05:00 -2°C° 0 mm 2 mps 461 mmHg 15%
06:00 -1°C° 0 mm 2 mps 462 mmHg 14%
07:00 +1°C° 0 mm 2 mps 463 mmHg 14%
08:00 +1°C° 0 mm 3 mps 464 mmHg 14%
09:00 +3°C° 0 mm 3 mps 465 mmHg 11%
10:00 +6°C° 0 mm 2 mps 467 mmHg 9%
11:00 +8°C° 0 mm 2 mps 468 mmHg 7%
12:00 +8°C° 0 mm 4 mps 468 mmHg 7%
13:00 +9°C° 0 mm 5 mps 468 mmHg 7%
14:00 +10°C° 0 mm 6 mps 468 mmHg 7%
15:00 +10°C° 0 mm 6 mps 468 mmHg 8%
16:00 +9°C° 0 mm 6 mps 467 mmHg 8%
17:00 +8°C° 0 mm 6 mps 466 mmHg 9%
18:00 +6°C° 0 mm 4 mps 465 mmHg 12%
19:00 +4°C° 0 mm 3 mps 464 mmHg 15%
20:00 +2°C° 0 mm 2 mps 463 mmHg 18%
21:00 +2°C° 0 mm 2 mps 463 mmHg 18%
22:00 +1°C° 0 mm 2 mps 463 mmHg 17%
23:00 -1°C° 0 mm 2 mps 462 mmHg 17%

Tomorrow, 11 July, Saturday

Time Temperature Precipitation Wind Pressure Humidity
00:00 -1°C° 0 mm 2 mps 462 mmHg 16%
01:00 -2°C° 0 mm 2 mps 462 mmHg 15%
02:00 -2°C° 0 mm 2 mps 461 mmHg 13%
03:00 -3°C° 0 mm 2 mps 461 mmHg 13%
04:00 -3°C° 0 mm 2 mps 460 mmHg 12%
05:00 -4°C° 0 mm 2 mps 460 mmHg 11%
06:00 -1°C° 0 mm 1 mps 461 mmHg 11%
07:00 0°C° 0 mm 1 mps 462 mmHg 11%
08:00 +2°C° 0 mm 1 mps 464 mmHg 11%
09:00 +4°C° 0 mm 1 mps 465 mmHg 9%
10:00 +5°C° 0 mm 2 mps 467 mmHg 7%
11:00 +8°C° 0 mm 2 mps 468 mmHg 6%
12:00 +9°C° 0 mm 3 mps 468 mmHg 6%
13:00 +10°C° 0 mm 4 mps 468 mmHg 5%
14:00 +10°C° 0 mm 5 mps 469 mmHg 5%
15:00 +10°C° 0 mm 5 mps 468 mmHg 6%
16:00 +9°C° 0 mm 5 mps 467 mmHg 7%
17:00 +8°C° 0 mm 5 mps 466 mmHg 8%
18:00 +6°C° 0 mm 4 mps 465 mmHg 11%
19:00 +4°C° 0 mm 3 mps 464 mmHg 14%
20:00 +2°C° 0 mm 3 mps 463 mmHg 16%
21:00 +1°C° 0 mm 3 mps 463 mmHg 16%
22:00 +1°C° 0 mm 3 mps 463 mmHg 15%
23:00 0°C° 0 mm 3 mps 463 mmHg 15%

Day after tomorrow, 12 July, Sunday

Time Temperature Precipitation Wind Pressure Humidity
00:00 0°C° 0 mm 3 mps 462 mmHg 14%
01:00 0°C° 0 mm 3 mps 462 mmHg 13%
02:00 -1°C° 0 mm 2 mps 462 mmHg 13%
03:00 -1°C° 0 mm 2 mps 462 mmHg 12%
04:00 -2°C° 0 mm 2 mps 461 mmHg 11%
05:00 -2°C° 0 mm 2 mps 461 mmHg 11%
06:00 -1°C° 0 mm 2 mps 462 mmHg 11%
07:00 +1°C° 0 mm 2 mps 464 mmHg 12%
08:00 +2°C° 0 mm 2 mps 465 mmHg 12%
09:00 +5°C° 0 mm 2 mps 467 mmHg 10%
10:00 +8°C° 0 mm 2 mps 468 mmHg 8%
11:00 +10°C° 0 mm 2 mps 470 mmHg 6%
12:00 +12°C° 0 mm 1 mps 470 mmHg 6%
13:00 +12°C° 0 mm 1 mps 470 mmHg 6%
14:00 +13°C° 0 mm 1 mps 470 mmHg 6%
15:00 +13°C° 0 mm 1 mps 469 mmHg 6%
16:00 +13°C° 0 mm 1 mps 469 mmHg 6%
17:00 +13°C° 0 mm 1 mps 469 mmHg 7%
18:00 +10°C° 0 mm 1 mps 467 mmHg 10%
19:00 +8°C° 0 mm 1 mps 466 mmHg 14%
20:00 +5°C° 0 mm 1 mps 465 mmHg 18%
21:00 +5°C° 0 mm 1 mps 464 mmHg 18%
22:00 +4°C° 0 mm 1 mps 464 mmHg 18%
23:00 +2°C° 0 mm 0 mps 464 mmHg 18%

13 July, Monday

Time Temperature Precipitation Wind Pressure Humidity
00:00 +3°C° 0 mm 1 mps 463 mmHg 18%
01:00 +2°C° 0 mm 1 mps 463 mmHg 18%
02:00 +1°C° 0 mm 1 mps 462 mmHg 17%
03:00 +1°C° 0 mm 1 mps 462 mmHg 17%
04:00 +1°C° 0 mm 1 mps 461 mmHg 17%
05:00 0°C° 0 mm 1 mps 461 mmHg 17%
06:00 +1°C° 0 mm 1 mps 463 mmHg 19%
07:00 +2°C° 0 mm 0 mps 464 mmHg 20%
08:00 +3°C° 0 mm 0 mps 466 mmHg 21%
09:00 +6°C° 0 mm 1 mps 467 mmHg 17%
10:00 +8°C° 0 mm 1 mps 469 mmHg 13%
11:00 +10°C° 0 mm 1 mps 470 mmHg 9%
12:00 +11°C° 0 mm 1 mps 470 mmHg 9%
13:00 +12°C° 0 mm 1 mps 470 mmHg 9%
14:00 +13°C° 0 mm 2 mps 470 mmHg 9%
15:00 +12°C° 0 mm 2 mps 470 mmHg 11%
16:00 +12°C° 0 mm 2 mps 469 mmHg 13%
17:00 +11°C° 0 mm 3 mps 469 mmHg 16%
18:00 +9°C° 0 mm 2 mps 468 mmHg 26%
19:00 +7°C° 0 mm 2 mps 467 mmHg 37%
20:00 +6°C° 0 mm 1 mps 466 mmHg 48%
21:00 +5°C° 0 mm 1 mps 466 mmHg 55%
22:00 +3°C° 0 mm 2 mps 466 mmHg 62%
23:00 +3°C° 0 mm 2 mps 465 mmHg 69%

14 July, Tuesday

Time Temperature Precipitation Wind Pressure Humidity
00:00 +2°C° 0 mm 2 mps 465 mmHg 73%
01:00 +2°C° 0 mm 2 mps 464 mmHg 76%
02:00 +1°C° 0 mm 2 mps 464 mmHg 80%
03:00 +1°C° 0 mm 1 mps 463 mmHg 78%
04:00 +1°C° 0 mm 1 mps 463 mmHg 77%
05:00 0°C° 0 mm 1 mps 462 mmHg 75%
06:00 +1°C° 0 mm 1 mps 463 mmHg 69%
07:00 +2°C° 0 mm 1 mps 464 mmHg 62%
08:00 +3°C° 0 mm 1 mps 465 mmHg 55%
09:00 +5°C° 0 mm 1 mps 467 mmHg 44%
10:00 +7°C° 0 mm 1 mps 468 mmHg 33%
11:00 +9°C° 0 mm 1 mps 469 mmHg 22%
12:00 +9°C° 0 mm 2 mps 469 mmHg 19%
13:00 +12°C° 0 mm 2 mps 469 mmHg 16%
14:00 +13°C° 0 mm 2 mps 470 mmHg 13%
15:00 +11°C° 0 mm 3 mps 469 mmHg 17%
16:00 +11°C° 0 mm 3 mps 468 mmHg 21%
17:00 +10°C° 0 mm 4 mps 468 mmHg 25%
18:00 +9°C° 0 mm 3 mps 467 mmHg 30%
19:00 +7°C° 0 mm 2 mps 466 mmHg 36%
20:00 +6°C° 0 mm 2 mps 466 mmHg 42%
21:00 +5°C° 0 mm 2 mps 465 mmHg 41%
22:00 +5°C° 0 mm 1 mps 465 mmHg 40%
23:00 +4°C° 0 mm 1 mps 465 mmHg 40%

15 July, Wednesday

Time Temperature Precipitation Wind Pressure Humidity
00:00 +4°C° 0 mm 1 mps 464 mmHg 37%
01:00 +3°C° 0 mm 1 mps 464 mmHg 34%
02:00 +3°C° 0 mm 1 mps 463 mmHg 31%
03:00 +1°C° 0 mm 2 mps 463 mmHg 30%
04:00 +1°C° 0 mm 2 mps 462 mmHg 28%
05:00 +1°C° 0 mm 2 mps 462 mmHg 27%
06:00 +1°C° 0 mm 2 mps 463 mmHg 27%
07:00 +2°C° 0 mm 2 mps 464 mmHg 26%
08:00 +3°C° 0 mm 2 mps 465 mmHg 25%
09:00 +5°C° 0 mm 2 mps 466 mmHg 21%
10:00 +7°C° 0 mm 3 mps 468 mmHg 16%
11:00 +10°C° 0 mm 3 mps 469 mmHg 12%
12:00 +11°C° 0 mm 4 mps 469 mmHg 11%
13:00 +12°C° 0 mm 4 mps 469 mmHg 10%
14:00 +13°C° 0 mm 5 mps 469 mmHg 9%
15:00 +12°C° 0 mm 5 mps 469 mmHg 10%
16:00 +12°C° 0 mm 5 mps 468 mmHg 11%
17:00 +11°C° 0 mm 4 mps 468 mmHg 12%
18:00 +8°C° 0 mm 4 mps 467 mmHg 16%
19:00 +7°C° 0 mm 3 mps 466 mmHg 19%
20:00 +5°C° 0 mm 2 mps 465 mmHg 23%
21:00 +4°C° 0 mm 2 mps 465 mmHg 24%
22:00 +4°C° 0 mm 1 mps 464 mmHg 26%
23:00 +4°C° 0 mm 1 mps 464 mmHg 27%
Show more